Weather History for Portland Troutdale, OR

Change the Weather History Date:

Wednesday, January 30, 2013

  Actual Average Record
Temperature  
Mean Temperature 48 °F 41 °F  
Max Temperature 50 °F 48 °F 59 °F (1984)
Min Temperature 45 °F 35 °F 9 °F (1950)
Degree Days  
Heating Degree Days 17 24  
Month to date heating degree days 812 758  
Cooling Degree Days 0 0  
Month to date cooling degree days 0 0  
Moisture  
Dew Point 44 °F    
Average Humidity 87    
Maximum Humidity 92    
Minimum Humidity 82    
Precipitation  
Precipitation 0.42 in 0.16 in 1.46 in (2003)
Month to date precipitation 3.54 6.01  
Year to date precipitation 3.54 6.01  
Snow  
Snow 0.00 in - - ()
Month to date snowfall 0.0  
Snow Depth 0.00 in    
Sea Level Pressure  
Sea Level Pressure 30.44 in    
Wind  
Wind Speed 7 mph (SW)    
Max Wind Speed 16 mph    
Max Gust Speed 22 mph    
Visibility 5 miles    
Events Rain    
T = Trace of Precipitation, MM = Missing Value Source: NWS Daily Summary

Daily Weather History Graph

Daily Weather History Graph

Search for Another Location

Airport:

Trip Planner

Search our weather history database for the weather conditions in past years. The results will help you decide how hot, cold, wet, or windy it might be!

Date:

Astronomy

Jan. 30, 2013 Rise Set
Actual Time 7:32 AM PST 5:13 PM PST
Civil Twilight 7:00 AM PST 5:45 PM PST
Nautical Twilight 6:25 AM PST 6:21 PM PST
Astronomical Twilight 5:50 AM PST 6:56 PM PST
Moon 9:33 PM PST (1/30) 8:49 AM PST (1/30)
Length of Visible Light 10h 44m
Length of Day
9h 41m
Waning Gibbous, 87% of the Moon is Illuminated
Jan 30
Waning Gibbous
Feb 3
Last Quarter
Feb 9
New
Feb 17
First Quarter
Feb 25
Full

Hourly Weather History & Observations

Time (PST) Temp. Windchill Dew Point Humidity Pressure Visibility Wind Dir Wind Speed Gust Speed Precip Events Conditions
12:53 AM 46.0 °F 40.2 °F 41.0 °F 83% 30.44 in 10.0 mi SSW 12.7 mph 20.7 mph N/A   Overcast
1:29 AM 44.6 °F 38.8 °F 41.0 °F 87% 30.45 in 5.0 mi SSW 11.5 mph - 0.01 in Rain Light Rain
1:53 AM 45.0 °F 40.1 °F 41.0 °F 86% 30.45 in 7.0 mi SSW 9.2 mph 21.9 mph 0.02 in Rain Light Rain
2:42 AM 44.6 °F 38.4 °F 41.0 °F 87% 30.45 in 4.0 mi SSW 12.7 mph - 0.00 in Rain Light Rain
2:48 AM 44.6 °F 39.2 °F 41.0 °F 87% 30.45 in 5.0 mi SSW 10.4 mph - 0.00 in Rain Light Rain
2:53 AM 45.0 °F 39.3 °F 41.0 °F 86% 30.44 in 5.0 mi SSW 11.5 mph - 0.00 in   Overcast
3:53 AM 45.0 °F 41.2 °F 41.0 °F 86% 30.45 in 5.0 mi SW 6.9 mph - 0.05 in Rain Light Rain
4:00 AM 44.6 °F 40.7 °F 41.0 °F 87% 30.45 in 6.0 mi SW 6.9 mph - 0.00 in Rain Light Rain
4:07 AM 44.6 °F 41.4 °F 41.0 °F 87% 30.44 in 6.0 mi SSW 5.8 mph - 0.01 in Rain Light Rain
4:53 AM 45.0 °F 40.6 °F 41.0 °F 86% 30.44 in 6.0 mi SSW 8.1 mph - 0.04 in Rain Light Rain
5:53 AM 45.0 °F 40.1 °F 41.0 °F 86% 30.44 in 6.0 mi SW 9.2 mph - 0.04 in Rain Light Rain
6:53 AM 45.0 °F 39.7 °F 41.0 °F 86% 30.44 in 7.0 mi SW 10.4 mph - 0.06 in Rain Light Rain
7:53 AM 45.0 °F 39.3 °F 42.1 °F 90% 30.44 in 3.0 mi SSW 11.5 mph 18.4 mph 0.02 in Rain Light Rain
8:53 AM 46.0 °F 41.4 °F 42.1 °F 86% 30.45 in 5.0 mi SW 9.2 mph - 0.02 in Rain Light Rain
9:53 AM 46.0 °F 43.1 °F 43.0 °F 89% 30.46 in 4.0 mi WSW 5.8 mph - 0.02 in Rain Light Rain
10:00 AM 46.4 °F 43.5 °F 42.8 °F 87% 30.46 in 3.0 mi WSW 5.8 mph - 0.00 in Rain Light Rain
10:15 AM 46.4 °F 44.3 °F 42.8 °F 87% 30.46 in 3.0 mi WSW 4.6 mph - 0.01 in Rain Light Rain
10:48 AM 46.4 °F 44.3 °F 42.8 °F 87% 30.46 in 9.0 mi WSW 4.6 mph - 0.01 in   Overcast
10:53 AM 46.9 °F - 43.0 °F 86% 30.46 in 10.0 mi SW 6.9 mph - 0.01 in   Overcast
11:53 AM 46.9 °F - 44.1 °F 90% 30.45 in 7.0 mi Calm Calm - 0.01 in Rain Light Rain
12:53 PM 48.0 °F - 44.1 °F 86% 30.44 in 2.5 mi WSW 4.6 mph - 0.01 in Rain Light Rain
1:18 PM 48.2 °F - 44.6 °F 87% 30.44 in 2.5 mi West 4.6 mph - 0.01 in Rain Light Rain
1:53 PM 48.0 °F - 45.0 °F 89% 30.43 in 6.0 mi Calm Calm - 0.02 in   Overcast
2:08 PM 48.2 °F - 44.6 °F 87% 30.43 in 10.0 mi Calm Calm - N/A   Overcast
2:53 PM 48.0 °F - 45.0 °F 89% 30.42 in 10.0 mi Calm Calm - N/A   Overcast
3:53 PM 48.0 °F - 45.0 °F 89% 30.42 in 10.0 mi Calm Calm - N/A   Overcast
4:38 PM 48.2 °F - 44.6 °F 87% 30.42 in 1.8 mi Calm Calm - 0.01 in Rain Light Rain
4:53 PM 48.0 °F - 46.0 °F 93% 30.42 in 2.5 mi Calm Calm - 0.02 in Rain Light Rain
5:13 PM 48.2 °F - 46.4 °F 93% 30.42 in 3.0 mi Variable 4.6 mph - 0.01 in Rain Light Rain
5:20 PM 48.2 °F - 46.4 °F 93% 30.42 in 2.5 mi WSW 6.9 mph - 0.02 in Rain Light Rain
5:53 PM 48.9 °F - 46.0 °F 90% 30.43 in 2.5 mi Variable 4.6 mph - 0.02 in   Overcast
6:00 PM 48.2 °F - 46.4 °F 93% 30.42 in 6.0 mi SW 6.9 mph - N/A   Overcast
6:16 PM 48.2 °F - 46.4 °F 93% 30.42 in 5.0 mi SW 5.8 mph - N/A   Overcast
6:53 PM 50.0 °F - 46.0 °F 86% 30.43 in 8.0 mi SW 9.2 mph - N/A   Overcast
7:53 PM 48.9 °F - 46.0 °F 90% 30.43 in 6.0 mi SW 10.4 mph - 0.00 in Rain Light Rain
8:53 PM 48.9 °F - 46.0 °F 90% 30.43 in 4.0 mi SW 10.4 mph - 0.01 in   Overcast
9:53 PM 48.9 °F - 46.0 °F 90% 30.44 in 4.0 mi SSW 8.1 mph - 0.02 in Rain Light Rain
10:53 PM 48.9 °F - 46.0 °F 90% 30.44 in 7.0 mi SSW 5.8 mph - 0.02 in   Overcast
11:14 PM 48.2 °F - 44.6 °F 87% 30.45 in 8.0 mi WSW 4.6 mph - N/A   Overcast
11:46 PM 48.2 °F - 46.4 °F 93% 30.45 in 2.5 mi WSW 3.5 mph - 0.01 in Rain Light Rain
11:53 PM 48.0 °F - 46.0 °F 93% 30.45 in 2.5 mi SSW 3.5 mph - 0.01 in Rain Light Rain